Flag for U.S.A. Weather past 2 weeks in Lansing, Michigan, U.S.A.

Now
13 °F

Clear.


Feels Like: 0 °F
Forecast: 4 / 16 °F
Wind: 10 mph from Northwest

Location: Capital City Airport

Current Time: Mar 5, 2015 at 12:00:38 AM

Latest Report: Mar 4, 2015 at 10:53 PM


Visibility: 10 mi

Pressure: 30.30 "Hg

Humidity: 51%

Dew point: -2 °F

Location of LansingLocation

Historic Weather in Lansing — Graph

°F

Lansing temperature yesterday

Maximum temperature yesterday: 29 °F (at 12:53 AM)
Minimum temperature yesterday: 13 °F (at 9:53 PM)
Average temperature yesterday: 25 °F

Past Weeks' High & Low Weather Summary

 TemperatureHumidityPressure
High34 °F (Mar 3, 5:53 PM)92% (Mar 3, 2:53 PM)30.78 "Hg (Mar 3, 2:53 PM)
Low-13 °F (Feb 20, 1:53 AM)39% (Feb 28, 12:53 PM)29.56 "Hg (Mar 3, 5:00 PM)
Average13 °F66%30.22 "Hg
* Reported Feb 17 9:53 PM — Mar 4 9:53 PM, Lansing, Weather by CustomWeather, © 2015

Note: Actual official high and low records may vary slightly from our data, if they occured in-between our weather recording intervals... More about our weather records

Advertising

Lansing weather history for previous 24 hours

 ConditionsComfort  
Time TempWeatherWind HumidityBarometerVisibility
9:53 PM
Wed, Mar 4
13 °FClear.14 mph51%30.26 "Hg10 mi
8:53 PM15 °FClear.14 mph49%30.22 "Hg10 mi
7:53 PM16 °FClear.10 mph53%30.20 "Hg10 mi
6:53 PM17 °FClear.14 mph54%30.14 "Hg10 mi
5:53 PM19 °FSunny.21 mph54%30.11 "Hg10 mi
4:53 PM21 °FSunny.20 mph52%30.07 "Hg10 mi
3:53 PM23 °FPassing clouds.16 mph55%30.04 "Hg10 mi
2:53 PM26 °FPartly sunny.23 mph55%30.03 "Hg10 mi
1:53 PM27 °FPassing clouds.21 mph51%30.01 "Hg10 mi
12:53 PM27 °FPassing clouds.16 mph55%30.01 "Hg10 mi
11:53 AM27 °FPartly sunny.16 mph58%29.99 "Hg10 mi
10:53 AM27 °FSunny.18 mph58%29.98 "Hg10 mi
9:53 AM26 °FSunny.15 mph66%29.98 "Hg10 mi
8:53 AM28 °FHaze.12 mph66%29.96 "Hg4 mi
7:53 AM28 °FMostly cloudy.9 mph75%29.95 "Hg5 mi
6:53 AM29 °FOvercast.8 mph69%29.91 "Hg8 mi
5:53 AM29 °FOvercast.9 mph75%29.89 "Hg7 mi
4:53 AM29 °FOvercast.8 mph75%29.85 "Hg7 mi
3:53 AM29 °FOvercast.8 mph75%29.84 "Hg8 mi
2:53 AM29 °FOvercast.9 mph75%29.85 "Hg8 mi
1:53 AM29 °FMostly cloudy.10 mph75%29.84 "Hg8 mi
12:53 AM29 °FOvercast.14 mph75%29.81 "Hg9 mi
Weather by CustomWeather, © 2015

See weather overviewHow to use our weather pages